Weather History for Lincoln, CA

Change the Weather History Date:

Wednesday, May 22, 2013

  Actual Average (KAUN) Record (KAUN)
Temperature  
Mean Temperature 58 °F -  
Max Temperature 73 °F 78 °F 95 °F (1950)
Min Temperature 44 °F 52 °F 35 °F (2013)
Degree Days  
Heating Degree Days 6    
Growing Degree Days 8 (Base 50)    
Moisture  
Dew Point 24 °F    
Average Humidity 30    
Maximum Humidity 57    
Minimum Humidity 10    
Precipitation  
Precipitation 0.00 in - - ()
Sea Level Pressure  
Sea Level Pressure 29.91 in    
Wind  
Wind Speed 13 mph (NNW)    
Max Wind Speed 24 mph    
Max Gust Speed 29 mph    
Visibility 10 miles    
Events      
Averages and records for this station are not official NWS values.
T = Trace of Precipitation, MM = Missing Value Source: NWS Daily Summary

Daily Weather History Graph

Daily Weather History Graph

Search for Another Location

Airport:

Trip Planner

Search our weather history database for the weather conditions in past years. The results will help you decide how hot, cold, wet, or windy it might be!

Date:

Astronomy

May. 22, 2013 Rise Set
Actual Time 5:47 AM PDT 8:17 PM PDT
Civil Twilight 5:16 AM PDT 8:48 PM PDT
Nautical Twilight 4:38 AM PDT 9:26 PM PDT
Astronomical Twilight 3:56 AM PDT 10:08 PM PDT
Moon 5:47 PM PDT (5/22) 3:53 AM PDT (5/22)
Length of Visible Light 15h 31m
Length of Day
14h 30m
Waxing Gibbous, 92% of the Moon is Illuminated
May 22
Waxing Gibbous
May 24
Full
May 31
Last Quarter
Jun 8
New
Jun 16
First Quarter

Hourly Weather History & Observations

Time (PDT) Temp. Windchill Dew Point Humidity Pressure Visibility Wind Dir Wind Speed Gust Speed Precip Events Conditions
12:15 AM 55.4 °F - 24.8 °F 31% 29.94 in 10.0 mi NNW 17.3 mph 23.0 mph N/A   Clear
12:35 AM 55.4 °F - 24.8 °F 31% 29.95 in 10.0 mi NNW 18.4 mph 28.8 mph N/A   Clear
12:55 AM 53.6 °F - 24.8 °F 33% 29.95 in 10.0 mi NNW 18.4 mph 25.3 mph N/A   Clear
1:15 AM 53.6 °F - 24.8 °F 33% 29.96 in 10.0 mi NNW 24.2 mph 27.6 mph N/A   Clear
1:35 AM 53.6 °F - 24.8 °F 33% 29.96 in 10.0 mi NNW 17.3 mph 25.3 mph N/A   Clear
1:55 AM 51.8 °F - 24.8 °F 35% 29.96 in 10.0 mi NNW 20.7 mph 26.5 mph N/A   Clear
2:15 AM 51.8 °F - 26.6 °F 38% 29.96 in 10.0 mi NNW 18.4 mph - N/A   Clear
2:35 AM 51.8 °F - 26.6 °F 38% 29.97 in 10.0 mi North 13.8 mph 20.7 mph N/A   Clear
2:55 AM 50.0 °F - 26.6 °F 40% 29.96 in 10.0 mi NNW 16.1 mph - N/A   Clear
3:15 AM 50.0 °F - 26.6 °F 40% 29.96 in 10.0 mi NNW 12.7 mph 20.7 mph N/A   Clear
3:35 AM 50.0 °F - 26.6 °F 40% 29.97 in 10.0 mi NNW 12.7 mph 18.4 mph N/A   Clear
3:55 AM 48.2 °F - 28.4 °F 46% 29.96 in 10.0 mi NNW 10.4 mph - N/A   Clear
4:15 AM 48.2 °F - 28.4 °F 46% 29.96 in 10.0 mi NNW 10.4 mph 16.1 mph N/A   Clear
4:35 AM 46.4 °F 41.9 °F 28.4 °F 50% 29.95 in 10.0 mi NW 9.2 mph - N/A   Clear
4:55 AM 46.4 °F 42.4 °F 28.4 °F 50% 29.95 in 10.0 mi NNW 8.1 mph - N/A   Clear
5:15 AM 46.4 °F 41.9 °F 28.4 °F 50% 29.95 in 10.0 mi NW 9.2 mph - N/A   Clear
5:35 AM 44.6 °F 40.2 °F 28.4 °F 53% 29.95 in 10.0 mi NNW 8.1 mph - N/A   Clear
5:55 AM 44.6 °F 41.4 °F 28.4 °F 53% 29.95 in 10.0 mi NW 5.8 mph - N/A   Clear
6:15 AM 44.6 °F 40.7 °F 28.4 °F 53% 29.95 in 10.0 mi NW 6.9 mph - N/A   Clear
6:35 AM 46.4 °F 41.9 °F 28.4 °F 50% 29.96 in 10.0 mi NNW 9.2 mph - N/A   Clear
6:55 AM 48.2 °F - 28.4 °F 46% 29.96 in 10.0 mi NW 11.5 mph - N/A   Clear
7:15 AM 50.0 °F - 26.6 °F 40% 29.96 in 10.0 mi NW 11.5 mph 17.3 mph N/A   Clear
7:35 AM 50.0 °F - 26.6 °F 40% 29.96 in 10.0 mi NW 13.8 mph 23.0 mph N/A   Clear
7:55 AM 51.8 °F - 26.6 °F 38% 29.97 in 10.0 mi NNW 17.3 mph 23.0 mph N/A   Clear
8:15 AM 51.8 °F - 26.6 °F 38% 29.97 in 10.0 mi NW 18.4 mph 24.2 mph N/A   Clear
8:35 AM 53.6 °F - 26.6 °F 35% 29.97 in 10.0 mi NNW 17.3 mph 25.3 mph N/A   Clear
8:55 AM 55.4 °F - 26.6 °F 33% 29.97 in 10.0 mi NNW 13.8 mph 23.0 mph N/A   Clear
9:15 AM 55.4 °F - 24.8 °F 31% 29.97 in 10.0 mi NW 15.0 mph 20.7 mph N/A   Clear
9:35 AM 57.2 °F - 26.6 °F 31% 29.97 in 10.0 mi NW 13.8 mph 18.4 mph N/A   Clear
9:55 AM 59.0 °F - 26.6 °F 29% 29.97 in 10.0 mi NNW 12.7 mph - N/A   Clear
10:15 AM 59.0 °F - 26.6 °F 29% 29.96 in 10.0 mi NNW 11.5 mph 18.4 mph N/A   Clear
10:35 AM 60.8 °F - 26.6 °F 27% 29.96 in 10.0 mi NNW 13.8 mph 20.7 mph N/A   Clear
10:55 AM 60.8 °F - 24.8 °F 25% 29.96 in 10.0 mi NNW 15.0 mph 20.7 mph N/A   Clear
11:15 AM 62.6 °F - 24.8 °F 24% 29.95 in 10.0 mi NW 10.4 mph 19.6 mph N/A   Clear
11:35 AM 64.4 °F - 24.8 °F 22% 29.95 in 10.0 mi North 11.5 mph 16.1 mph N/A   Clear
11:55 AM 64.4 °F - 21.2 °F 19% 29.94 in 10.0 mi WNW 13.8 mph 23.0 mph N/A   Clear
12:15 PM 64.4 °F - 23.0 °F 21% 29.94 in 10.0 mi WNW 9.2 mph 20.7 mph N/A   Clear
12:35 PM 66.2 °F - 21.2 °F 18% 29.94 in 10.0 mi NNW 11.5 mph 18.4 mph N/A   Clear
12:55 PM 66.2 °F - 21.2 °F 18% 29.93 in 10.0 mi WNW 8.1 mph 17.3 mph N/A   Clear
1:15 PM 68.0 °F - 19.4 °F 16% 29.92 in 10.0 mi NW 11.5 mph 17.3 mph N/A   Clear
1:35 PM 68.0 °F - 17.6 °F 15% 29.92 in 10.0 mi NW 11.5 mph 18.4 mph N/A   Clear
1:55 PM 68.0 °F - 19.4 °F 16% 29.91 in 10.0 mi NNW 11.5 mph 17.3 mph N/A   Clear
2:15 PM 69.8 °F - 15.8 °F 13% 29.91 in 10.0 mi NNW 13.8 mph 17.3 mph N/A   Clear
2:35 PM 69.8 °F - 14.0 °F 12% 29.90 in 10.0 mi WNW 8.1 mph 18.4 mph N/A   Clear
2:55 PM 69.8 °F - 15.8 °F 13% 29.90 in 10.0 mi WNW 9.2 mph 16.1 mph N/A   Clear
3:15 PM 71.6 °F - 14.0 °F 11% 29.90 in 10.0 mi WNW 12.7 mph 17.3 mph N/A   Clear
3:35 PM 71.6 °F - 14.0 °F 11% 29.89 in 10.0 mi NW 8.1 mph 18.4 mph N/A   Clear
3:55 PM 71.6 °F - 14.0 °F 11% 29.88 in 10.0 mi West 8.1 mph - N/A   Clear
4:15 PM 71.6 °F - 12.2 °F 10% 29.88 in 10.0 mi WNW 9.2 mph 17.3 mph N/A   Clear
4:35 PM 71.6 °F - 12.2 °F 10% 29.87 in 10.0 mi WNW 11.5 mph 17.3 mph N/A   Clear
4:55 PM 73.4 °F - 14.0 °F 10% 29.87 in 10.0 mi NNW 10.4 mph - N/A   Clear
5:15 PM 71.6 °F - 14.0 °F 11% 29.86 in 10.0 mi North 8.1 mph - N/A   Clear
5:35 PM 71.6 °F - 14.0 °F 11% 29.85 in 10.0 mi NNW 9.2 mph - N/A   Clear
5:55 PM 71.6 °F - 17.6 °F 13% 29.85 in 10.0 mi North 3.5 mph - N/A   Clear
6:15 PM 71.6 °F - 15.8 °F 12% 29.85 in 10.0 mi NNW 3.5 mph - N/A   Clear
6:35 PM 71.6 °F - 17.6 °F 13% 29.84 in 10.0 mi Calm Calm - N/A   Clear
6:55 PM 69.8 °F - 17.6 °F 14% 29.84 in 10.0 mi North 4.6 mph - N/A   Clear
7:15 PM 69.8 °F - 17.6 °F 14% 29.84 in 10.0 mi NNW 4.6 mph - N/A   Clear
7:35 PM 68.0 °F - 19.4 °F 16% 29.85 in 10.0 mi North 3.5 mph - N/A   Clear
7:55 PM 66.2 °F - 21.2 °F 18% 29.84 in 10.0 mi Calm Calm - N/A   Clear
8:15 PM 64.4 °F - 19.4 °F 18% 29.84 in 10.0 mi Calm Calm - N/A   Clear
8:35 PM 64.4 °F - 17.6 °F 16% 29.84 in 10.0 mi Calm Calm - N/A   Clear
8:55 PM 62.6 °F - 19.4 °F 19% 29.84 in 10.0 mi Calm Calm - N/A   Clear
9:15 PM 62.6 °F - 19.4 °F 19% 29.84 in 10.0 mi Calm Calm - N/A   Clear
9:35 PM 59.0 °F - 23.0 °F 25% 29.84 in 10.0 mi Calm Calm - N/A   Clear
9:55 PM 57.2 °F - 32.0 °F 38% 29.85 in 10.0 mi South 4.6 mph - N/A   Clear
10:15 PM 53.6 °F - 33.8 °F 47% 29.85 in 10.0 mi South 6.9 mph - N/A   Clear
10:35 PM 53.6 °F - 35.6 °F 51% 29.85 in 10.0 mi SSE 8.1 mph - N/A   Clear
10:55 PM 51.8 °F - 35.6 °F 54% 29.85 in 10.0 mi SSE 8.1 mph - N/A   Clear
11:15 PM 53.6 °F - 37.4 °F 54% 29.85 in 10.0 mi SSE 4.6 mph - N/A   Clear
11:35 PM 51.8 °F - 35.6 °F 54% 29.85 in 10.0 mi East 6.9 mph - N/A   Clear
11:55 PM 46.4 °F 43.5 °F 32.0 °F 57% 29.86 in 10.0 mi East 5.8 mph - N/A   Clear